[[{"header":{"parameterUnit":"m.s-1","parameterCategory":2,"la1":30.2991,"la2":30.254,"lo1":-89.0895,"lo2":-89.0444,"dy":0.0017,"dx":0.0017,"nx":28,"ny":28,"refTime":"2024-05-14T21:00:00:Z","depth":"0","parameterNumber":2,"parameterNumberName":"U-component_of_CURRENTS"},"data":[0,0,0,0,0,0,0,0,0,0,0,0,0,0,0,0,0,0,0,0,0,0,0,0,0,0,0,0,0,0,0,0,0,0,0,0,0,0,0,0,0,0,0,0,0,0,0,0,0,0,0,0,0,0,0,0,0,0,0.3793,0.3795,0,0.39,0.39,0.39,0.39,0.39,0.39,0.39,0.3775,0.3772,0.3769,0,0,0,0,0,0,0,0,0,0,0,0,0,0.3866,0.3862,0.3793,0.3795,0.3798,0.39,0.39,0.39,0.39,0.39,0.39,0.39,0.3776,0.3772,0.3768,0,0,0,0,0,0,0,0,0,0,0,0,0,0.3877,0.3861,0.3792,0.3819,0.3823,0.3899,0.39,0.39,0.3901,0.39,0.39,0.3899,0.3777,0.3772,0.3768,0.3747,0,0,0.3754,0.3752,0,0,0,0,0,0,0,0,0.3876,0.3873,0.3813,0.3817,0.3823,0.3897,0.3881,0.3842,0.3901,0.3858,0.39,0.3899,0.3802,0.3796,0.3802,0.3741,0.3736,0.3753,0.375,0.3748,0.3747,0,0,0,0,0,0,0,0.3875,0.387,0.3822,0.3816,0.3822,0.3922,0.3919,0.3875,0.3817,0.3862,0.3865,0.3897,0.3802,0.3807,0.3799,0.3734,0.3753,0.3749,0.3746,0.3745,0.3694,0.3695,0,0,0,0,0,0,0.3872,0.3867,0.3819,0.3827,0.3863,0.3921,0.3917,0.3863,0.3823,0.3822,0.3897,0.3897,0.3815,0.3804,0.3794,0.3799,0.3748,0.3744,0.3741,0.3692,0.3694,0.3696,0,0,0,0,0,0,0.3871,0.3862,0.3815,0.3866,0.3868,0.3919,0.386,0.3866,0.3882,0.3855,0.3846,0.3909,0.3814,0.3801,0.3794,0.3793,0.3742,0.3738,0.3691,0.3693,0.3695,0.3787,0,0,0,0,0,0,0.3871,0.3859,0.3794,0.3862,0.3865,0.3871,0.3862,0.3869,0.3908,0.3908,0.3862,0.385,0.3813,0.3802,0.379,0.3785,0.3734,0.3689,0.3692,0.3694,0.3782,0.3792,0.3801,0,0,0,0,0,0.3872,0.3811,0.3787,0.3783,0.3778,0.3874,0.3884,0.3915,0.3909,0.3923,0.3911,0.3852,0.3809,0.38,0.3785,0.3779,0.3688,0.3691,0.3694,0.3778,0.379,0.38,0,0,0,0,0,0,0.3843,0.3808,0.3784,0.3718,0.3792,0.3879,0.3903,0.3922,0.3926,0.3918,0.3876,0.3865,0.3855,0.3813,0.3804,0.3776,0.3735,0.3735,0.3804,0.3815,0.3824,0.3795,0.373,0,0,0,0,0,0.3796,0.3705,0.3764,0.3716,0.376,0.3826,0.386,0.3891,0.3927,0.3929,0.3908,0.3878,0.3856,0.3836,0.3809,0.3792,0.3709,0.3778,0.3787,0.3795,0.3765,0.3662,0.3658,0.3706,0.3706,0.3706,0,0,0.376,0.3747,0.3685,0.3701,0.376,0.3828,0.3843,0.3917,0.3954,0.3909,0.3931,0.3908,0.3863,0.3858,0.3846,0.382,0.3746,0.3799,0.3807,0.3771,0.3665,0.3659,0.3655,0.3708,0.3708,0.3708,0,0,0.3748,0.3662,0.363,0.369,0.3783,0.3827,0.3854,0.3945,0.3962,0.3999,0.3972,0.3949,0.3934,0.3892,0.387,0.3906,0.3804,0.391,0.392,0.3823,0.3816,0.381,0.3725,0.371,0.3907,0.3907,0.3907,0,0.3723,0.3675,0.3658,0.3717,0.3763,0.3833,0.3893,0.3935,0.4003,0.3995,0.4015,0.3969,0.3939,0.3894,0.3927,0.3918,0.3858,0.3884,0.3831,0.3822,0.3814,0.3727,0.371,0.3912,0.3911,0.3911,0.391,0,0.3716,0.3711,0.3741,0.3774,0.3821,0.3895,0.3972,0.4,0.4028,0.4046,0.403,0.401,0.3963,0.397,0.3967,0.3899,0.3876,0.3859,0.3796,0.3814,0.3723,0.3703,0.3919,0.3917,0.3916,0.3914,0,0,0.3572,0.3698,0.3709,0.3743,0.3853,0.3892,0.3958,0.4008,0.4003,0.4051,0.4022,0.4022,0.3992,0.3964,0.3944,0.3879,0.3798,0.386,0.3853,0.3763,0.359,0.3429,0.3391,0.3778,0.3775,0.3772,0.356,0,0.3587,0.3693,0.3735,0.3817,0.3875,0.3938,0.3976,0.4009,0.4034,0.4022,0.3995,0.3964,0.3998,0.3966,0.3917,0.3829,0.3744,0.3856,0.3595,0.3586,0.343,0.3361,0.3285,0.3075,0.3539,0.3536,0.3533,0,0.354,0.3621,0.3717,0.381,0.3837,0.3874,0.3889,0.3939,0.3945,0.3953,0.3929,0.3918,0.3855,0.3869,0.371,0.3789,0.3687,0.3617,0.3606,0.3394,0.3384,0.3127,0.3019,0.3004,0.35,0.3503,0.3505,0,0.3412,0.3574,0.3634,0.3676,0.3807,0.3814,0.386,0.3887,0.3887,0.3884,0.3851,0.3817,0.3751,0.3663,0.3559,0.3629,0.3348,0.3413,0.3159,0.3148,0.2991,0.297,0.2812,0.3234,0.3234,0.3235,0.3236,0,0.337,0.3401,0.3574,0.3605,0.3613,0.3722,0.3704,0.3746,0.3764,0.369,0.3783,0.3695,0.3692,0.3562,0.3498,0.3241,0.3282,0.311,0.3055,0.3025,0.3011,0.2915,0.2939,0.3227,0.3229,0.323,0.3232,0,0.3197,0.3342,0.3387,0.3531,0.3553,0.3539,0.3606,0.357,0.3638,0.3539,0.3526,0.3556,0.3389,0.3338,0.3151,0.3096,0.281,0.279,0.2761,0.2704,0.2487,0.2519,0.2119,0.207,0.25,0.2494,0.2489,0,0.3113,0.3136,0.327,0.326,0.3316,0.3339,0.3321,0.3453,0.3408,0.3407,0.3305,0.321,0.3038,0.2772,0.268,0.2484,0.2494,0.2296,0.2395,0.24,0.2398,0.2359,0.235,0.2252,0.2246,0.2241,0.2237,0,0.291,0.2961,0.2995,0.2973,0.2969,0.2991,0.2991,0.2959,0.304,0.2954,0.2782,0.2673,0.2534,0.2328,0.2167,0.2079,0.2221,0.2177,0.2184,0.2153,0.2093,0.2047,0.25,0.219,0.2195,0.2198,0.2201,0.2203,0.2673,0.2625,0.2631,0.2582,0.2595,0.2536,0.247,0.2463,0.2333,0.2202,0.226,0.2078,0.2091,0.1873,0.1786,0.1717,0.177,0.1715,0.1744,0.1696,0.165,0.198,0.1608,0.161,0.1611,0.1612,0.1612,0,0.2273,0.2254,0.2211,0.2131,0.2035,0.217,0.2133,0.2057,0.1812,0.1802,0.164,0.1541,0.1412,0.1484,0.1437,0.1355,0.1372,0.1338,0.135,0.1362,0.1651,0.165,0.1266,0.1266,0.1266,0.1266,0.1266,0.1266,0.203,0.1849,0.1843,0.1561,0.154,0.1408,0.1375,0.1319,0.1326,0.1151,0.1108,0.114,0.1255,0.1235,0.1191,0.1172,0.1158,0.1023,0.1067,0.1408,0.145,0.1491,0.1497,0.1087,0.1087,0.076,0.0758,0.0756]},{"header":{"parameterUnit":"m.s-1","parameterCategory":2,"la1":30.2991,"la2":30.254,"lo1":-89.0895,"lo2":-89.0444,"dy":0.0017,"dx":0.0017,"nx":28,"ny":28,"refTime":"2024-05-14T21:00:00:Z","depth":"0","parameterNumber":3,"parameterNumberName":"V-component_of_CURRENTS"},"data":[0,0,0,0,0,0,0,0,0,0,0,0,0,0,0,0,0,0,0,0,0,0,0,0,0,0,0,0,0,0,0,0,0,0,0,0,0,0,0,0,0,0,0,0,0,0,0,0,0,0,0,0,0,0,0,0,0,0,-0.1039,-0.1039,0,-0.103,-0.103,-0.1029,-0.0947,-0.0946,-0.0944,-0.0943,-0.0823,-0.0822,-0.082,0,0,0,0,0,0,0,0,0,0,0,0,0,-0.1159,-0.1155,-0.1039,-0.1039,-0.1039,-0.103,-0.103,-0.1029,-0.0948,-0.0946,-0.0944,-0.0942,-0.0824,-0.0822,-0.082,0,0,0,0,0,0,0,0,0,0,0,0,0,-0.1118,-0.1154,-0.1038,-0.1002,-0.0999,-0.103,-0.103,-0.1029,-0.0948,-0.0946,-0.0944,-0.0941,-0.0825,-0.0822,-0.0819,-0.0848,0,0,-0.0811,-0.081,0,0,0,0,0,0,0,0,-0.112,-0.1113,-0.1007,-0.1005,-0.1002,-0.0993,-0.1029,-0.0965,-0.0949,-0.0961,-0.0943,-0.094,-0.0875,-0.0868,-0.0865,-0.0843,-0.0837,-0.0811,-0.0809,-0.0808,-0.0807,0,0,0,0,0,0,0,-0.1123,-0.1114,-0.1029,-0.1008,-0.1005,-0.1047,-0.1036,-0.1017,-0.0924,-0.096,-0.0956,-0.0965,-0.0872,-0.0868,-0.0861,-0.0836,-0.0811,-0.0809,-0.0807,-0.0806,-0.0801,-0.0802,0,0,0,0,0,0,-0.1128,-0.1115,-0.103,-0.103,-0.1063,-0.1046,-0.1034,-0.0993,-0.0927,-0.0917,-0.0967,-0.0961,-0.0873,-0.0865,-0.0857,-0.0855,-0.0808,-0.0806,-0.0804,-0.0799,-0.0801,-0.0803,0,0,0,0,0,0,-0.113,-0.1119,-0.103,-0.1081,-0.1073,-0.1045,-0.1001,-0.0994,-0.0991,-0.0934,-0.092,-0.0971,-0.0871,-0.086,-0.0849,-0.0851,-0.0804,-0.0802,-0.0798,-0.08,-0.0802,-0.0873,0,0,0,0,0,0,-0.1133,-0.1118,-0.1097,-0.1079,-0.107,-0.1056,-0.1004,-0.0996,-0.1003,-0.0995,-0.0934,-0.092,-0.0869,-0.0853,-0.0846,-0.0846,-0.08,-0.0796,-0.0799,-0.0801,-0.0869,-0.0877,-0.0884,0,0,0,0,0,-0.1136,-0.1123,-0.1094,-0.1086,-0.1037,-0.1058,-0.1058,-0.1029,-0.1006,-0.1015,-0.0975,-0.0922,-0.0865,-0.0853,-0.0844,-0.0843,-0.0794,-0.0798,-0.0801,-0.0865,-0.0875,-0.0884,0,0,0,0,0,0,-0.1197,-0.1113,-0.1082,-0.105,-0.1057,-0.1047,-0.1059,-0.1046,-0.1025,-0.1009,-0.0949,-0.0934,-0.0918,-0.0888,-0.0877,-0.0853,-0.0819,-0.082,-0.087,-0.088,-0.0887,-0.0874,-0.0798,0,0,0,0,0,-0.1194,-0.1133,-0.1109,-0.1091,-0.1092,-0.1079,-0.1086,-0.1069,-0.1053,-0.1041,-0.1007,-0.0966,-0.0929,-0.0911,-0.0878,-0.0879,-0.0797,-0.0873,-0.0881,-0.0887,-0.0873,-0.0727,-0.0718,-0.0814,-0.0814,-0.0813,0,0,-0.1207,-0.1166,-0.1128,-0.1098,-0.1094,-0.1101,-0.1076,-0.1092,-0.1094,-0.1033,-0.103,-0.0994,-0.0937,-0.0923,-0.0913,-0.0895,-0.0831,-0.0892,-0.0898,-0.0878,-0.0729,-0.0719,-0.0709,-0.0816,-0.0815,-0.0815,0,0,-0.1232,-0.1177,-0.1139,-0.1142,-0.1142,-0.1136,-0.1147,-0.1144,-0.1134,-0.1143,-0.1084,-0.1052,-0.1029,-0.0969,-0.0938,-0.0977,-0.0876,-0.0982,-0.1007,-0.0866,-0.0856,-0.0845,-0.0777,-0.0759,-0.0986,-0.0986,-0.0986,0,-0.1264,-0.1199,-0.1154,-0.1151,-0.1156,-0.1153,-0.116,-0.1164,-0.1162,-0.115,-0.1148,-0.1075,-0.1037,-0.0975,-0.0995,-0.0987,-0.0916,-0.0972,-0.0871,-0.0858,-0.0846,-0.0778,-0.0758,-0.099,-0.099,-0.0989,-0.0989,0,-0.1246,-0.1224,-0.1228,-0.1183,-0.1195,-0.1212,-0.1208,-0.1219,-0.1218,-0.1205,-0.117,-0.1123,-0.1063,-0.1063,-0.1044,-0.0956,-0.094,-0.0893,-0.0836,-0.084,-0.077,-0.0748,-0.0996,-0.0994,-0.0993,-0.0992,0,0,-0.1214,-0.121,-0.1206,-0.1203,-0.1209,-0.1215,-0.1232,-0.1229,-0.1206,-0.1217,-0.1165,-0.1143,-0.1109,-0.1072,-0.1035,-0.0941,-0.0827,-0.0899,-0.089,-0.0816,-0.0558,-0.0587,-0.0565,-0.0749,-0.0744,-0.074,-0.0561,0,-0.1214,-0.1231,-0.1212,-0.1228,-0.1233,-0.1235,-0.1241,-0.1238,-0.1227,-0.1182,-0.1136,-0.1072,-0.1114,-0.1062,-0.0989,-0.0831,-0.0763,-0.0883,-0.058,-0.0572,-0.058,-0.0536,-0.0528,-0.0369,-0.0539,-0.0535,-0.0532,0,-0.117,-0.1186,-0.1215,-0.1228,-0.1225,-0.1229,-0.1208,-0.1211,-0.1161,-0.1142,-0.1092,-0.1042,-0.0935,-0.0946,-0.0724,-0.0795,-0.0701,-0.0604,-0.0592,-0.0567,-0.0555,-0.0384,-0.032,-0.0361,-0.0496,-0.0499,-0.0501,0,-0.1145,-0.1173,-0.1201,-0.1206,-0.1225,-0.1218,-0.1216,-0.1189,-0.1134,-0.1081,-0.0998,-0.0929,-0.0794,-0.0689,-0.056,-0.0606,-0.029,-0.0309,-0.0267,-0.027,-0.0176,-0.0178,-0.0091,-0.0147,-0.0148,-0.0148,-0.0149,0,-0.1134,-0.1135,-0.1187,-0.1191,-0.1156,-0.1193,-0.1124,-0.1121,-0.1043,-0.091,-0.095,-0.0795,-0.0704,-0.0541,-0.049,-0.0306,-0.0229,-0.0252,-0.0201,-0.0213,-0.022,-0.0183,-0.0219,-0.0142,-0.0143,-0.0144,-0.0146,0,-0.1068,-0.1134,-0.1122,-0.1149,-0.1137,-0.1098,-0.1014,-0.0934,-0.0925,-0.0732,-0.0689,-0.0595,-0.0406,-0.0357,-0.0127,-0.0154,-0.0015,0.002,-0.0055,-0.0018,-0.0074,-0.0116,0.0076,0.0066,0.0094,0.0095,0.0095,0,-0.1029,-0.1032,-0.1039,-0.0982,-0.0973,-0.0918,-0.0834,-0.0842,-0.0727,-0.0573,-0.0429,-0.027,-0.0116,0.0092,0.0091,0.0151,0.0102,0.0156,0.0056,-0.006,-0.0065,-0.0089,-0.0115,0.0138,0.0139,0.0139,0.014,0,-0.0876,-0.089,-0.0857,-0.0774,-0.0692,-0.0613,-0.0509,-0.0419,-0.0365,-0.0237,-0.0018,0.0089,0.0213,0.0282,0.0263,0.0271,0.0114,0.017,0.0132,0.0039,-0.0049,-0.0041,-0.0063,0.0147,0.0146,0.0145,0.0145,0.0145,-0.0681,-0.0616,-0.057,-0.0484,-0.0397,-0.0288,-0.021,-0.0094,0.0065,0.0236,0.0308,0.0448,0.0421,0.0394,0.036,0.0226,0.0216,0.0168,0.0145,0.0145,0.0084,0.0014,0.0223,0.0222,0.0222,0.0222,0.0222,0,-0.0395,-0.0356,-0.0261,-0.0167,-0.0057,-0.0097,0.0047,0.0114,0.0298,0.0447,0.0584,0.0663,0.061,0.0491,0.0323,0.0218,0.0166,0.0155,0.0135,0.0123,0.016,0.0103,0.0197,0.0197,0.0197,0.0197,0.0197,0.0197,-0.0214,-0.0074,-0.0078,0.0134,0.0178,0.0293,0.0344,0.043,0.0517,0.0699,0.0778,0.0824,0.0776,0.0471,0.0261,0.0191,0.0115,0.0109,0.0072,0.0071,0.007,0.0069,0.0007,0.008,0.0079,0.0048,0.0048,0.0047]}],[{"header":{"parameterUnit":"m.s-1","parameterCategory":2,"la1":30.2991,"la2":30.254,"lo1":-89.0895,"lo2":-89.0444,"dy":0.0017,"dx":0.0017,"nx":28,"ny":28,"refTime":"2024-05-14T21:00:00:Z","depth":"2","parameterNumber":2,"parameterNumberName":"U-component_of_CURRENTS"},"data":[0,0,0,0,0,0,0,0,0,0,0,0,0,0,0,0,0,0,0,0,0,0,0,0,0,0,0,0,0,0,0,0,0,0,0,0,0,0,0,0,0,0,0,0,0,0,0,0,0,0,0,0,0,0,0,0,0,0,0.1703,0.1702,0,0.1616,0.1615,0.1615,0.1592,0.1592,0.1592,0.1592,0.1691,0.1693,0.1696,0,0,0,0,0,0,0,0,0,0,0,0,0,0.1619,0.1623,0.1703,0.1702,0.17,0.1616,0.1615,0.1615,0.1592,0.1592,0.1592,0.1592,0.169,0.1693,0.1696,0,0,0,0,0,0,0,0,0,0,0,0,0,0.1613,0.1624,0.1704,0.1674,0.167,0.1616,0.1615,0.1614,0.1592,0.1592,0.1592,0.1592,0.1689,0.1693,0.1697,0.1724,0,0,0.1709,0.1711,0,0,0,0,0,0,0,0,0.1614,0.1617,0.168,0.1676,0.1671,0.1609,0.1621,0.1658,0.1592,0.1629,0.1592,0.1592,0.1676,0.1681,0.1672,0.1728,0.1733,0.1709,0.1712,0.1714,0.1715,0,0,0,0,0,0,0,0.1615,0.1619,0.1675,0.1678,0.1672,0.1584,0.1586,0.1626,0.1663,0.1625,0.1622,0.1601,0.1676,0.1668,0.1675,0.1734,0.1709,0.1713,0.1715,0.1717,0.1767,0.1766,0,0,0,0,0,0,0.1625,0.1622,0.1678,0.1672,0.1634,0.1586,0.1589,0.1634,0.1658,0.1658,0.1602,0.16,0.1661,0.167,0.1678,0.1718,0.1714,0.1717,0.172,0.1768,0.1767,0.1765,0,0,0,0,0,0,0.1625,0.1634,0.1682,0.1634,0.1634,0.1589,0.1639,0.1632,0.1643,0.1637,0.1642,0.1621,0.1661,0.1672,0.1691,0.1722,0.1719,0.1723,0.1769,0.1768,0.1766,0.1796,0,0,0,0,0,0,0.1624,0.1636,0.1698,0.1638,0.1637,0.1644,0.1638,0.1631,0.1626,0.1625,0.1655,0.1662,0.1662,0.1685,0.1695,0.1728,0.1726,0.1771,0.1769,0.1767,0.1796,0.1795,0.1795,0,0,0,0,0,0.1623,0.1644,0.1704,0.1709,0.1718,0.1643,0.1634,0.1603,0.1628,0.1619,0.1628,0.1662,0.1679,0.1687,0.17,0.1734,0.1772,0.1769,0.1767,0.1796,0.1795,0.1795,0,0,0,0,0,0,0.1554,0.1642,0.1705,0.1739,0.1713,0.1636,0.1622,0.1623,0.1625,0.1647,0.1656,0.1662,0.1699,0.1696,0.1705,0.1733,0.173,0.173,0.1748,0.1747,0.1747,0.1778,0.1729,0,0,0,0,0,0.1599,0.1685,0.1698,0.1711,0.1725,0.1702,0.1682,0.167,0.1644,0.1646,0.1655,0.1671,0.1694,0.1704,0.1721,0.1741,0.1756,0.1763,0.1763,0.1762,0.179,0.184,0.1848,0.1757,0.1757,0.1757,0,0,0.1608,0.162,0.1697,0.1712,0.1705,0.1704,0.169,0.166,0.1662,0.1663,0.1676,0.1689,0.1701,0.1714,0.1729,0.1718,0.1779,0.1759,0.176,0.1788,0.1839,0.1849,0.1857,0.1756,0.1756,0.1756,0,0,0.1566,0.1657,0.173,0.1723,0.1716,0.1693,0.17,0.1673,0.1684,0.1699,0.1698,0.1719,0.1743,0.1739,0.175,0.1758,0.1788,0.1759,0.1777,0.1825,0.1834,0.1843,0.1816,0.1822,0.1743,0.1743,0.1743,0,0.1583,0.1642,0.1708,0.1711,0.17,0.1703,0.1714,0.1715,0.1684,0.1704,0.1711,0.1748,0.1764,0.1783,0.1774,0.1767,0.1771,0.1788,0.183,0.1839,0.1848,0.1818,0.1825,0.1744,0.1744,0.1744,0.1744,0,0.1586,0.1639,0.1631,0.1702,0.1695,0.1672,0.1699,0.1718,0.1746,0.1742,0.179,0.1793,0.1801,0.1812,0.1808,0.1856,0.1827,0.1841,0.1846,0.186,0.1825,0.1832,0.1746,0.1745,0.1745,0.1745,0,0,0.1643,0.1665,0.1669,0.1694,0.1695,0.1673,0.1714,0.1734,0.1781,0.1786,0.183,0.1855,0.1851,0.186,0.1847,0.1894,0.1939,0.1893,0.1895,0.1889,0.1996,0.1876,0.1871,0.1972,0.1975,0.1977,0.1928,0,0.1641,0.1624,0.1648,0.165,0.1668,0.17,0.1724,0.1752,0.1795,0.1834,0.1865,0.1922,0.1865,0.1911,0.1916,0.1972,0.1968,0.1948,0.1965,0.1964,0.1878,0.188,0.1759,0.1699,0.1934,0.1936,0.1936,0,0.1663,0.1644,0.1646,0.1655,0.1677,0.1681,0.1747,0.1771,0.1842,0.1892,0.1921,0.1966,0.2003,0.1996,0.2017,0.2008,0.1991,0.2021,0.202,0.1917,0.1859,0.1732,0.1702,0.1948,0.1947,0.1946,0.1945,0,0.164,0.1642,0.1626,0.1631,0.1659,0.1696,0.1713,0.179,0.1823,0.1954,0.199,0.2039,0.2067,0.21,0.2075,0.2092,0.2103,0.2128,0.1976,0.1964,0.1869,0.1845,0.2148,0.2148,0.2149,0.2149,0.2149,0,0.1602,0.1596,0.1622,0.1627,0.1637,0.1685,0.1735,0.1788,0.1866,0.1865,0.1987,0.1995,0.2114,0.2107,0.21,0.2009,0.2087,0.1986,0.1962,0.1863,0.184,0.2078,0.2071,0.2147,0.2147,0.2148,0.2148,0,0.154,0.1561,0.1573,0.1622,0.1626,0.1647,0.1695,0.1725,0.1825,0.1839,0.1896,0.1982,0.2003,0.2028,0.2094,0.2008,0.2004,0.1935,0.1766,0.1724,0.1829,0.1823,0.183,0.1826,0.1822,0.1819,0.1817,0,0.1466,0.1476,0.1544,0.1555,0.1569,0.1602,0.1603,0.1692,0.17,0.1777,0.1741,0.1841,0.1806,0.1805,0.1815,0.1784,0.1841,0.1623,0.1654,0.183,0.1806,0.1805,0.1804,0.1512,0.1507,0.1503,0.15,0,0.1367,0.1432,0.1442,0.1438,0.1454,0.1455,0.1456,0.1464,0.1535,0.1563,0.1543,0.1578,0.158,0.1544,0.153,0.15,0.1648,0.154,0.1798,0.1604,0.1525,0.1503,0.1514,0.1465,0.1469,0.1471,0.1473,0.1474,0.129,0.1284,0.1314,0.1284,0.1298,0.1265,0.1251,0.1252,0.1245,0.1258,0.1313,0.1303,0.1364,0.1313,0.1255,0.1253,0.1382,0.1354,0.1369,0.1388,0.1353,0.1272,0.1153,0.1155,0.1156,0.1157,0.1159,0,0.1147,0.1155,0.1135,0.1131,0.1089,0.1125,0.11,0.1086,0.1046,0.1073,0.108,0.1007,0.0985,0.1035,0.0981,0.0986,0.1022,0.0949,0.1001,0.1035,0.1066,0.1019,0.0729,0.0727,0.0726,0.0725,0,0,0.1101,0.1034,0.101,0.0901,0.09,0.0834,0.0819,0.0811,0.0826,0.0813,0.0821,0.0921,0.0977,0.083,0.0828,0.0761,0.0892,0.0731,0.1078,0.1172,0.1201,0.13,0.1265,0,0,0,0,0]},{"header":{"parameterUnit":"m.s-1","parameterCategory":2,"la1":30.2991,"la2":30.254,"lo1":-89.0895,"lo2":-89.0444,"dy":0.0017,"dx":0.0017,"nx":28,"ny":28,"refTime":"2024-05-14T21:00:00:Z","depth":"2","parameterNumber":3,"parameterNumberName":"V-component_of_CURRENTS"},"data":[0,0,0,0,0,0,0,0,0,0,0,0,0,0,0,0,0,0,0,0,0,0,0,0,0,0,0,0,0,0,0,0,0,0,0,0,0,0,0,0,0,0,0,0,0,0,0,0,0,0,0,0,0,0,0,0,0,0,0.0119,0.0121,0,0.0217,0.0216,0.0216,0.0157,0.0156,0.0155,0.0153,0.0088,0.0087,0.0087,0,0,0,0,0,0,0,0,0,0,0,0,0,-0.0005,-0.0005,0.0119,0.0121,0.0124,0.0217,0.0216,0.0216,0.0157,0.0156,0.0154,0.0153,0.0088,0.0087,0.0087,0,0,0,0,0,0,0,0,0,0,0,0,0,0.005,-0.0004,0.0118,0.0118,0.012,0.0217,0.0216,0.0216,0.0158,0.0156,0.0154,0.0152,0.0088,0.0087,0.0087,0.0121,0,0,0.0084,0.0084,0,0,0,0,0,0,0,0,0.0047,0.0052,0.0115,0.0119,0.0121,0.0187,0.015,0.0182,0.0158,0.0126,0.0153,0.0151,0.0118,0.0115,0.0116,0.0118,0.0115,0.0084,0.0084,0.0083,0.0083,0,0,0,0,0,0,0,0.0043,0.0049,0.014,0.0119,0.0123,0.0154,0.0157,0.0156,0.0116,0.0129,0.0129,0.0167,0.0116,0.0117,0.0114,0.0114,0.0084,0.0083,0.0083,0.0083,0.0144,0.0146,0,0,0,0,0,0,0.0061,0.0045,0.0138,0.0145,0.0098,0.0159,0.0161,0.0154,0.0119,0.0118,0.0168,0.0164,0.0119,0.0115,0.0111,0.0132,0.0083,0.0082,0.0082,0.0142,0.0145,0.0147,0,0,0,0,0,0,0.0057,0.0066,0.0134,0.0113,0.0126,0.0164,0.0157,0.0158,0.0145,0.0155,0.0146,0.0155,0.0118,0.0113,0.0131,0.0129,0.0082,0.0081,0.014,0.0143,0.0146,0.0184,0,0,0,0,0,0,0.0052,0.0063,0.0033,0.0113,0.0129,0.0196,0.016,0.0162,0.0182,0.0175,0.0142,0.0134,0.0116,0.0133,0.0131,0.0127,0.0081,0.0137,0.0141,0.0145,0.018,0.0188,0.0194,0,0,0,0,0,0.0046,0.0056,0.003,0.0042,0.0095,0.0199,0.0208,0.0218,0.0183,0.0192,0.0182,0.0134,0.0155,0.0135,0.0131,0.0127,0.0135,0.014,0.0145,0.0176,0.0186,0.0194,0,0,0,0,0,0,0.0073,0.0055,0.0027,0.0049,0.0112,0.0195,0.0217,0.0217,0.0215,0.0198,0.0169,0.0165,0.0173,0.0164,0.0142,0.0163,0.0134,0.0139,0.016,0.0168,0.0176,0.0148,0.008,0,0,0,0,0,0.0046,-0.0009,0.0052,0.0079,0.01,0.0143,0.0174,0.0192,0.0228,0.0222,0.0196,0.0185,0.0196,0.0193,0.0192,0.0212,0.0184,0.0209,0.0216,0.0222,0.0202,0.0189,0.0191,0.0163,0.0163,0.0163,0,0,0.0033,0.0062,0.0007,0.0071,0.0107,0.0165,0.0152,0.0223,0.0253,0.0218,0.0214,0.0204,0.0209,0.0228,0.023,0.0216,0.0222,0.0229,0.0233,0.0209,0.0194,0.0196,0.0198,0.0166,0.0166,0.0165,0,0,0.0095,0.0043,0.0028,0.008,0.0165,0.0189,0.0206,0.0261,0.0248,0.0278,0.0257,0.0244,0.0256,0.0251,0.0256,0.0307,0.026,0.0317,0.0328,0.0316,0.0317,0.0317,0.03,0.0298,0.0323,0.0323,0.0323,0,0.0096,0.0111,0.0065,0.0145,0.0186,0.0197,0.0257,0.0271,0.0319,0.0321,0.0279,0.0272,0.0258,0.0287,0.0304,0.0314,0.031,0.0288,0.0321,0.0321,0.0321,0.0302,0.03,0.0325,0.0325,0.0325,0.0324,0,0.0173,0.0187,0.0227,0.0256,0.0288,0.0365,0.0386,0.0388,0.0356,0.0371,0.0359,0.0323,0.0323,0.0315,0.0323,0.0329,0.0329,0.0328,0.0287,0.0325,0.0304,0.0301,0.0328,0.0328,0.0327,0.0326,0,0,0.0156,0.0236,0.0246,0.0279,0.0349,0.04,0.0428,0.0469,0.0483,0.0451,0.0428,0.0429,0.0388,0.039,0.0372,0.0341,0.0333,0.034,0.0338,0.0301,0.0315,0.0299,0.0294,0.0349,0.0349,0.0348,0.0305,0,0.0232,0.0371,0.0372,0.0464,0.0518,0.0515,0.0541,0.0569,0.0553,0.0526,0.0458,0.0411,0.043,0.0375,0.0382,0.0341,0.0326,0.0344,0.0301,0.0299,0.0262,0.0289,0.0305,0.0266,0.0302,0.0301,0.0301,0,0.0295,0.0379,0.0478,0.055,0.0565,0.0597,0.0611,0.0641,0.0624,0.0598,0.0559,0.048,0.0429,0.0382,0.0373,0.0397,0.0367,0.0316,0.0314,0.0274,0.0276,0.0235,0.0258,0.0294,0.0295,0.0295,0.0296,0,0.0305,0.0441,0.0509,0.0544,0.0623,0.0627,0.0638,0.0655,0.0668,0.0582,0.0567,0.051,0.0437,0.04,0.0344,0.0352,0.0296,0.0297,0.025,0.0249,0.0235,0.0233,0.0255,0.0255,0.0255,0.0255,0.0256,0,0.0389,0.0442,0.0513,0.0552,0.0608,0.0632,0.0655,0.067,0.0652,0.0669,0.0591,0.0552,0.0435,0.0391,0.0344,0.0313,0.0325,0.024,0.0234,0.0253,0.0253,0.0253,0.0254,0.0254,0.0254,0.0255,0.0255,0,0.04,0.046,0.0518,0.0583,0.0613,0.0621,0.0659,0.0684,0.0687,0.068,0.0617,0.0575,0.0514,0.0432,0.0322,0.0321,0.0239,0.0214,0.0235,0.0232,0.0196,0.02,0.0152,0.0151,0.015,0.0149,0.0149,0,0.0436,0.0469,0.0516,0.0535,0.0558,0.0593,0.0631,0.0664,0.0687,0.0707,0.0697,0.0601,0.0563,0.0448,0.0335,0.0232,0.0225,0.0173,0.0172,0.0185,0.0184,0.0189,0.0193,0.0177,0.0176,0.0176,0.0176,0,0.0452,0.0427,0.0465,0.0514,0.0541,0.0601,0.0645,0.067,0.0706,0.0728,0.0719,0.0652,0.0569,0.044,0.0305,0.0239,0.0188,0.0163,0.0175,0.0201,0.0205,0.0206,0.021,0.0174,0.0174,0.0174,0.0174,0.0174,0.0411,0.0415,0.0427,0.0475,0.0524,0.0568,0.0594,0.0646,0.0674,0.07,0.0696,0.0665,0.0569,0.038,0.0274,0.0165,0.0173,0.0129,0.0131,0.0133,0.0144,0.0147,0.0106,0.0106,0.0106,0.0106,0.0106,0,0.0355,0.0366,0.0403,0.043,0.0468,0.0516,0.0594,0.0615,0.0628,0.0679,0.0672,0.0583,0.048,0.0385,0.0232,0.0133,0.0132,0.009,0.0121,0.0124,0.0127,0.0139,0.0098,0.0098,0.0097,0.0097,0,0,0.0304,0.0311,0.0337,0.0363,0.04,0.0455,0.0487,0.0535,0.0588,0.06,0.061,0.062,0.0523,0.0403,0.0281,0.0193,0.0174,0.0166,0.0185,0.024,0.0243,0.0163,0.0187,0,0,0,0,0]}],[{"header":{"parameterUnit":"m.s-1","parameterCategory":2,"la1":30.2991,"la2":30.254,"lo1":-89.0895,"lo2":-89.0444,"dy":0.0017,"dx":0.0017,"nx":28,"ny":28,"refTime":"2024-05-14T21:00:00:Z","depth":"4","parameterNumber":2,"parameterNumberName":"U-component_of_CURRENTS"},"data":[0,0,0,0,0,0,0,0,0,0,0,0,0,0,0,0,0,0,0,0,0,0,0,0,0,0,0,0,0,0,0,0,0,0,0,0,0,0,0,0,0,0,0,0,0,0,0,0,0,0,0,0,0,0,0,0,0,0,0.0473,0.0473,0,0.0489,0.0489,0.0489,0.0503,0.0503,0.0504,0.0504,0.0543,0.0543,0.0544,0,0,0,0,0,0,0,0,0,0,0,0,0,0.0424,0.0425,0.0473,0.0473,0.0474,0.0489,0.0489,0.0489,0.0503,0.0503,0.0504,0.0504,0.0542,0.0543,0.0544,0,0,0,0,0,0,0,0,0,0,0,0,0,0.0441,0.0425,0.0473,0.0484,0.0485,0.0489,0.0489,0.0489,0.0503,0.0503,0.0504,0.0504,0.0542,0.0543,0.0544,0.0542,0,0,0.0548,0.0548,0,0,0,0,0,0,0,0,0.044,0.0443,0.0482,0.0483,0.0484,0.0496,0.0486,0.0508,0.0503,0.0494,0.0504,0.0504,0.053,0.0532,0.0531,0.0544,0.0546,0.0548,0.0548,0.0549,0.0549,0,0,0,0,0,0,0,0.0439,0.0442,0.0478,0.0482,0.0484,0.0477,0.048,0.049,0.0509,0.0495,0.0497,0.0501,0.053,0.053,0.0532,0.0546,0.0548,0.0549,0.0549,0.055,0.0627,0.0628,0,0,0,0,0,0,0.0442,0.0441,0.0477,0.0478,0.0465,0.0478,0.0481,0.049,0.0508,0.0511,0.05,0.0501,0.0528,0.0531,0.0534,0.0583,0.0549,0.055,0.0551,0.0625,0.0627,0.0628,0,0,0,0,0,0,0.0441,0.0445,0.0477,0.0461,0.0465,0.0479,0.0488,0.049,0.0506,0.0512,0.0516,0.0516,0.0529,0.0532,0.0555,0.0583,0.055,0.0551,0.0624,0.0626,0.0628,0.065,0,0,0,0,0,0,0.0439,0.0444,0.0455,0.0461,0.0466,0.0492,0.0488,0.049,0.0508,0.051,0.0526,0.0529,0.0529,0.0553,0.0556,0.0584,0.0552,0.0622,0.0625,0.0627,0.0647,0.0652,0.0656,0,0,0,0,0,0.0437,0.0448,0.0455,0.046,0.0479,0.0492,0.0494,0.0504,0.0508,0.0519,0.0529,0.053,0.0572,0.0555,0.0558,0.0587,0.0621,0.0624,0.0627,0.0645,0.0651,0.0656,0,0,0,0,0,0,0.0417,0.0451,0.0459,0.0475,0.0489,0.0496,0.0501,0.0513,0.0528,0.0531,0.0537,0.0541,0.0574,0.0578,0.0559,0.0619,0.0601,0.0605,0.0614,0.062,0.0624,0.0638,0.0553,0,0,0,0,0,0.0421,0.0449,0.0466,0.048,0.0485,0.0496,0.0504,0.0516,0.0528,0.0535,0.055,0.0568,0.0586,0.0601,0.0614,0.0641,0.066,0.0667,0.0671,0.0675,0.069,0.0744,0.0755,0.0639,0.0639,0.0638,0,0,0.0421,0.0438,0.0457,0.048,0.0485,0.0502,0.0502,0.0519,0.0542,0.0537,0.0571,0.0582,0.0596,0.0627,0.0644,0.0636,0.0716,0.0679,0.0682,0.0695,0.0749,0.076,0.077,0.0641,0.064,0.064,0,0,0.0424,0.0443,0.0465,0.048,0.05,0.0511,0.0522,0.0542,0.0559,0.0589,0.0596,0.0629,0.0651,0.0674,0.0685,0.0728,0.0735,0.0732,0.077,0.0821,0.0831,0.0841,0.0864,0.0875,0.0738,0.0738,0.0738,0,0.0416,0.0447,0.047,0.0485,0.05,0.0519,0.0537,0.0557,0.0588,0.0607,0.0607,0.0664,0.0679,0.0723,0.0741,0.074,0.0758,0.0742,0.0827,0.0837,0.0846,0.0868,0.088,0.074,0.0739,0.0739,0.0739,0,0.0441,0.0459,0.0466,0.0502,0.0522,0.0539,0.0569,0.0598,0.0621,0.0645,0.0696,0.0718,0.0754,0.0769,0.0768,0.084,0.0827,0.0822,0.081,0.0859,0.0879,0.0891,0.0742,0.0741,0.0741,0.074,0,0,0.044,0.0477,0.0479,0.0492,0.0534,0.0548,0.0591,0.0633,0.0662,0.0706,0.0745,0.0797,0.0814,0.083,0.084,0.0893,0.0968,0.0889,0.0891,0.0907,0.1067,0.096,0.0963,0.0976,0.0979,0.0981,0.105,0,0.0448,0.0468,0.0498,0.0527,0.0541,0.0576,0.0613,0.0658,0.0695,0.0738,0.0782,0.0822,0.0834,0.0852,0.0909,0.0958,0.1004,0.0949,0.1023,0.1025,0.0921,0.0975,0.0989,0.1059,0.1062,0.1064,0.1065,0,0.0466,0.048,0.0503,0.0536,0.0546,0.0575,0.0634,0.067,0.0736,0.0764,0.0819,0.0844,0.0931,0.0922,0.1049,0.1013,0.1047,0.108,0.1083,0.0988,0.0942,0.1006,0.1087,0.1085,0.1084,0.1082,0.1081,0,0.0452,0.0482,0.0498,0.0512,0.056,0.0586,0.0617,0.0682,0.0718,0.0784,0.0815,0.0901,0.0952,0.1027,0.1095,0.1083,0.1215,0.1202,0.1135,0.1126,0.119,0.118,0.1286,0.1286,0.1286,0.1286,0.1285,0,0.0447,0.0463,0.0493,0.0505,0.054,0.0577,0.0625,0.0665,0.0727,0.0776,0.0828,0.0874,0.0986,0.106,0.1113,0.1159,0.1232,0.1155,0.1147,0.1195,0.1185,0.1198,0.1187,0.1288,0.1287,0.1287,0.1287,0,0.0428,0.0447,0.0471,0.0514,0.0534,0.0559,0.0625,0.0661,0.0717,0.0781,0.0804,0.089,0.0986,0.1063,0.1185,0.1172,0.1228,0.1215,0.1252,0.1242,0.11,0.1089,0.1163,0.116,0.1158,0.1156,0.1154,0,0.0418,0.0426,0.047,0.0494,0.0518,0.0563,0.0602,0.0657,0.0698,0.0787,0.0817,0.0907,0.0963,0.1048,0.1128,0.1199,0.1186,0.1191,0.1161,0.1108,0.1093,0.1086,0.1079,0.115,0.1149,0.1148,0.1148,0,0.0404,0.0421,0.0447,0.0487,0.0527,0.0567,0.0622,0.0642,0.0715,0.0762,0.0817,0.0853,0.0937,0.1013,0.1055,0.1107,0.1183,0.1165,0.1171,0.1143,0.1092,0.1079,0.1075,0.1139,0.114,0.1141,0.1142,0,0.0403,0.0421,0.0454,0.0489,0.0535,0.0571,0.0593,0.0642,0.068,0.0764,0.0783,0.0867,0.0938,0.0965,0.1017,0.1043,0.1039,0.1013,0.1026,0.1036,0.0961,0.0876,0.0864,0,0,0,0,0,0.0396,0.0423,0.0455,0.0501,0.0539,0.0559,0.0616,0.0639,0.0696,0.0718,0.0746,0.0814,0.0864,0.0903,0.0912,0.0972,0.105,0.0975,0.1027,0.1091,0.1101,0.1022,0,0,0,0,0,0,0.0405,0.0435,0.0453,0.0496,0.0523,0.0566,0.0593,0.0627,0.064,0.0694,0.0732,0.0761,0.0834,0.0863,0.0898,0.091,0.0925,0.102,0.1018,0.1085,0.1094,0.1102,0.1024,0,0,0,0,0]},{"header":{"parameterUnit":"m.s-1","parameterCategory":2,"la1":30.2991,"la2":30.254,"lo1":-89.0895,"lo2":-89.0444,"dy":0.0017,"dx":0.0017,"nx":28,"ny":28,"refTime":"2024-05-14T21:00:00:Z","depth":"4","parameterNumber":3,"parameterNumberName":"V-component_of_CURRENTS"},"data":[0,0,0,0,0,0,0,0,0,0,0,0,0,0,0,0,0,0,0,0,0,0,0,0,0,0,0,0,0,0,0,0,0,0,0,0,0,0,0,0,0,0,0,0,0,0,0,0,0,0,0,0,0,0,0,0,0,0,0.0474,0.0475,0,0.0499,0.0499,0.0499,0.049,0.0489,0.0489,0.0489,0.0524,0.0526,0.0527,0,0,0,0,0,0,0,0,0,0,0,0,0,0.0428,0.0428,0.0474,0.0475,0.0476,0.0499,0.0499,0.0499,0.049,0.0489,0.0489,0.0489,0.0524,0.0525,0.0527,0,0,0,0,0,0,0,0,0,0,0,0,0,0.0446,0.0428,0.0474,0.0477,0.0478,0.0499,0.0499,0.0499,0.049,0.0489,0.0489,0.0489,0.0524,0.0525,0.0527,0.0542,0,0,0.0532,0.0533,0,0,0,0,0,0,0,0,0.0445,0.0447,0.0476,0.0477,0.0478,0.0495,0.0496,0.0515,0.049,0.0481,0.0489,0.0489,0.0519,0.0521,0.0519,0.0543,0.0545,0.0532,0.0533,0.0534,0.0534,0,0,0,0,0,0,0,0.0443,0.0446,0.048,0.0477,0.0478,0.048,0.0482,0.0499,0.0497,0.0481,0.0482,0.0492,0.0518,0.0518,0.052,0.0546,0.0532,0.0533,0.0534,0.0535,0.06,0.06,0,0,0,0,0,0,0.0449,0.0445,0.0479,0.0481,0.0465,0.0482,0.0483,0.0486,0.0497,0.05,0.0492,0.0491,0.0515,0.0518,0.0522,0.0552,0.0534,0.0535,0.0536,0.0599,0.06,0.06,0,0,0,0,0,0,0.0448,0.0451,0.0478,0.0467,0.0471,0.0483,0.0486,0.0487,0.0491,0.0506,0.0507,0.0497,0.0515,0.0519,0.0545,0.0553,0.0536,0.0537,0.0598,0.0599,0.06,0.0607,0,0,0,0,0,0,0.0446,0.0451,0.0457,0.0467,0.0472,0.0495,0.0487,0.0488,0.0499,0.0499,0.0511,0.0513,0.0515,0.0542,0.0546,0.0555,0.0539,0.0597,0.0598,0.06,0.0605,0.0608,0.061,0,0,0,0,0,0.0444,0.0456,0.0457,0.0462,0.048,0.0496,0.0498,0.0503,0.05,0.0504,0.0515,0.0513,0.0553,0.0544,0.0549,0.0558,0.0596,0.0598,0.06,0.0604,0.0607,0.061,0,0,0,0,0,0,0.0458,0.0457,0.0458,0.0474,0.0487,0.0496,0.0513,0.0508,0.0518,0.0521,0.0525,0.0529,0.0556,0.0559,0.0549,0.0582,0.0574,0.0576,0.0576,0.0579,0.0581,0.0591,0.054,0,0,0,0,0,0.0461,0.0453,0.0469,0.0481,0.0496,0.0504,0.0513,0.0511,0.0523,0.0526,0.0534,0.0548,0.0566,0.0573,0.0591,0.0609,0.0582,0.0618,0.062,0.0622,0.0634,0.0595,0.0594,0.0606,0.0606,0.0606,0,0,0.0473,0.0469,0.0469,0.0481,0.0497,0.0517,0.0508,0.0525,0.0535,0.0531,0.0553,0.0561,0.0575,0.0596,0.0608,0.0598,0.06,0.0624,0.0625,0.0637,0.0596,0.0595,0.0593,0.0607,0.0607,0.0607,0,0,0.0488,0.0493,0.0495,0.0508,0.0527,0.0531,0.0537,0.055,0.0554,0.0573,0.0575,0.0589,0.0612,0.0621,0.063,0.0656,0.0618,0.0658,0.0671,0.0632,0.063,0.0628,0.0569,0.0562,0.0652,0.0652,0.0652,0,0.0506,0.051,0.0503,0.052,0.054,0.054,0.0565,0.057,0.0582,0.0593,0.0585,0.0619,0.0627,0.0654,0.066,0.0662,0.0621,0.0657,0.0632,0.063,0.0628,0.0568,0.056,0.0652,0.0652,0.0652,0.0652,0,0.0523,0.0538,0.0552,0.0562,0.0578,0.0601,0.0615,0.0626,0.0628,0.0629,0.0656,0.0659,0.0679,0.0678,0.0678,0.0676,0.0644,0.0641,0.0621,0.0627,0.0563,0.0555,0.0653,0.0653,0.0653,0.0653,0,0,0.0539,0.0558,0.0564,0.0586,0.0604,0.0623,0.0646,0.067,0.069,0.0689,0.071,0.0729,0.0722,0.0732,0.0725,0.069,0.0631,0.0657,0.0655,0.0589,0.0517,0.0498,0.0486,0.0611,0.061,0.0609,0.0468,0,0.0564,0.0595,0.0594,0.064,0.0673,0.0682,0.0705,0.072,0.0726,0.0744,0.074,0.0759,0.0744,0.0748,0.0715,0.0661,0.0613,0.0668,0.053,0.0526,0.0501,0.0479,0.0607,0.0462,0.046,0.0458,0.0457,0,0.0581,0.0603,0.0647,0.0689,0.0707,0.073,0.0772,0.0789,0.0805,0.0808,0.0813,0.0806,0.0781,0.0761,0.0655,0.0684,0.0607,0.0551,0.0544,0.0525,0.0493,0.0462,0.0442,0.0443,0.0444,0.0445,0.0446,0,0.0592,0.0641,0.0675,0.0693,0.0739,0.0767,0.079,0.0813,0.0823,0.0844,0.0839,0.0823,0.0793,0.0715,0.0606,0.0621,0.0465,0.047,0.0378,0.0374,0.0429,0.0433,0.0388,0.0388,0.0389,0.0389,0.0389,0,0.0609,0.0643,0.069,0.0718,0.0765,0.0793,0.0836,0.0852,0.0868,0.086,0.087,0.084,0.0774,0.0683,0.0597,0.0451,0.045,0.0376,0.0341,0.0432,0.0439,0.0421,0.0426,0.0384,0.0385,0.0386,0.0387,0,0.0601,0.0634,0.0683,0.0749,0.077,0.0802,0.0847,0.0861,0.0883,0.0868,0.0867,0.0824,0.0707,0.0625,0.0478,0.0422,0.0303,0.0249,0.0332,0.0305,0.0238,0.0246,0.0139,0.0137,0.0136,0.0135,0.0134,0,0.0587,0.0616,0.0693,0.0708,0.0736,0.079,0.0808,0.0858,0.0852,0.0835,0.0802,0.0724,0.0679,0.0451,0.0385,0.0228,0.0214,0.0154,0.0229,0.0238,0.0214,0.0224,0.0234,0.0131,0.0131,0.013,0.013,0,0.0565,0.0599,0.0634,0.0656,0.0689,0.0729,0.0756,0.0756,0.0779,0.0813,0.0717,0.0647,0.0517,0.0408,0.029,0.0184,0.0206,0.0139,0.0142,0.0211,0.0227,0.0207,0.0218,0.0125,0.0126,0.0126,0.0126,0,0.0529,0.0534,0.0561,0.0574,0.0609,0.0615,0.0673,0.0656,0.0669,0.0666,0.0624,0.0541,0.0511,0.0378,0.0264,0.0173,0.0165,0.015,0.0153,0.0158,0.0229,0.0256,0.0124,0,0,0,0,0,0.0463,0.0443,0.0458,0.047,0.0505,0.0526,0.0585,0.064,0.0685,0.0601,0.0616,0.0502,0.0368,0.0323,0.0221,0.0239,0.0149,0.012,0.0132,0.0096,0.0102,0.0185,0,0,0,0,0,0,0.0408,0.0412,0.0418,0.0367,0.0358,0.0392,0.0438,0.0493,0.0461,0.0503,0.0429,0.0457,0.0324,0.0393,0.02,0.0182,0.0176,0.0082,0.008,0.0093,0.0099,0.0103,0.019,0,0,0,0,0]}]]